sat.trackr.live / text

‹ back to catalog

ASCENT

NORAD 51287 · 2021-118E

PAYLOAD ACTIVE UNKNOWN

§ Identity

Operator
Country
US
Launch date
2021-12-07
Launch site
AFETR
Launch vehicle
Mass (kg)
RCS (m²)

External: N2YO · Heavens-Above · Gunter

§ Orbital elements

Epoch: 2026-09-18T04:19:03.410976Z

Period
1,422.55 min
Inclination
4.4022°
Eccentricity
0.0008543
Mean motion
1.01226776 rev/d
Perigee alt
35,485.2 km
Apogee alt
35,556.8 km
Semi-major
41,899.1 km
B*
0.0000e+0
RAAN
75.9821°
Arg perigee
124.6104°
Mean anomaly
235.7171°
Rev number
1,726

§ Raw data

ASCENT1 51287U 21118E   26261.17990059  .00000116  00000+0  00000+0 0  99992 51287   4.4022  75.9821 0008543 124.6104 235.7171  1.01226776 17261

JSON: /api/v1/satellites/51287 · /tle

For live sub-satellite position, see the globe view (requires WebGL).

§ Visibility from observer

Set your observer location to see the next 7 days of passes ≥ 10°. The values pass through the URL so the page stays shareable.

No JS? Fill the form by hand. The geolocation button needs JavaScript.